Theta_e
280 280 280 280 280 280 280 279 279 280 279 279 279 279 278 278 278 277 277 277 277 277 277 277 278 278 276 276 277 276 275 275 272 274 276 277 277 277 278 278 278 277 277
281 280 280 280 280 279 279 279 280 280 280 279 279 279 278 278 278 277 277 277 276 276 277 277 276 278 276 276 275 275 275 275 274 273 274 275 276 277 277 276 276 277 277
281 280 280 280 279 279 279 279 280 278 278 279 279 278 278 278 277 277 277 277 276 276 276 276 276 276 275 275 274 274 274 275 275 273 272 275 275 276 275 275 275 275 277
281 280 279 279 279 279 279 279 279 279 277 275 275 276 276 276 278 277 278 277 276 277 278 277 277 276 275 274 274 274 274 274 274 273 272 272 274 274 274 272 271 273 273
280 279 279 280 280 279 279 279 279 279 278 277 274 273 273 274 276 274 276 275 275 276 277 278 278 277 278 278 276 275 274 274 273 273 272 272 272 272 272 272 271 272 272
279 279 279 279 279 279 279 279 279 278 278 278 276 275 273 276 280 282 281 276 277 276 275 275 276 276 276 279 279 279 278 274 274 273 272 272 273 274 273 272 271 270 266
278 278 279 279 278 278 278 278 278 277 277 277 276 274 273 275 282 283 283 280 276 275 274 275 275 276 275 275 276 277 277 278 278 275 272 273 273 274 274 272 271 269 267
275 275 275 276 276 276 275 275 274 276 273 272 271 271 270 274 282 283 283 280 275 274 272 270 271 272 272 272 271 271 271 273 274 275 274 275 276 276 277 274 269 267 267
271 271 271 272 272 272 272 270 269 269 267 267 270 271 269 273 280 282 281 278 276 273 270 269 270 271 274 277 274 271 271 271 276 278 279 280 281 280 278 272 265 264 262
267 268 269 269 270 269 269 270 270 266 268 269 270 268 269 270 278 280 280 279 276 274 267 267 274 271 276 278 275 273 271 271 271 271 272 273 273 269 274 269 267 263 262
264 266 266 267 268 269 269 268 267 265 266 264 266 268 268 268 270 278 279 277 277 275 271 270 268 276 278 279 280 277 275 276 274 275 267 266 264 264 264 263 265 265 262
262 263 263 264 268 268 267 267 266 265 266 265 266 267 267 267 272 277 278 279 279 276 275 272 270 276 278 279 278 279 280 280 277 268 264 261 260 261 262 261 261 262 264
259 259 260 262 265 265 265 264 265 267 266 266 266 266 267 269 267 275 276 277 277 276 275 276 278 279 280 279 279 279 278 275 262 258 262 265 258 260 255 253 255 258 260
256 258 260 260 261 262 264 265 264 263 263 265 266 267 268 269 268 269 271 272 274 274 275 273 273 276 277 276 273 274 273 271 267 267 265 260 255 253 253 254 258 259 259
257 257 257 259 259 261 263 263 264 265 266 266 266 266 266 265 268 273 273 272 273 274 274 272 269 268 268 269 269 269 269 269 266 262 262 258 257 256 259 254 254 257 255
257 257 258 258 258 260 260 259 264 266 268 269 270 269 268 270 272 273 273 274 274 275 271 269 269 270 270 270 269 269 270 267 267 266 261 261 261 259 260 258 254 253 256
254 256 256 257 258 257 257 257 256 259 264 265 267 267 268 269 270 270 271 272 272 271 265 263 264 265 266 268 269 269 269 268 267 265 264 261 260 259 254 256 257 256 255
250 253 254 255 256 255 256 256 256 255 255 257 261 264 266 267 267 268 269 269 261 261 257 259 259 260 262 264 266 267 267 266 264 264 262 258 256 259 257 256 255 255 255
251 252 252 253 254 254 254 254 254 254 255 255 256 259 259 263 264 266 266 258 258 258 259 259 260 260 261 262 263 264 264 263 262 260 257 258 259 258 254 255 256 256 254
246 250 251 250 250 250 252 252 253 253 253 253 254 254 255 255 256 258 257 253 256 256 257 257 259 260 260 261 261 262 262 258 258 259 260 260 260 259 256 256 255 254 253
247 247 249 250 249 251 251 252 252 252 253 253 254 255 262 260 257 255 255 255 255 256 257 258 258 259 260 261 261 261 260 260 261 261 260 260 259 256 257 255 254 252 252
246 247 247 247 251 251 251 252 252 253 253 253 254 255 261 256 255 255 255 255 256 257 258 258 258 259 260 260 260 260 260 259 259 260 259 259 257 256 254 251 249 250 251
247 247 249 250 250 250 251 252 252 252 253 253 254 254 255 255 255 255 255 256 256 257 258 258 258 258 259 258 259 260 259 258 259 260 258 257 256 255 252 249 248 249 250
246 248 249 249 250 250 250 251 252 253 253 254 253 254 254 254 254 255 256 256 257 257 258 258 258 258 259 259 259 259 259 259 259 259 257 256 255 254 250 244 248 249 250
243 247 248 248 249 250 252 252 252 252 252 252 252 253 253 253 254 254 255 256 257 257 258 258 259 259 258 258 258 258 258 259 258 258 257 254 253 252 249 249 250 250 252
247 248 249 249 250 251 251 251 251 251 251 252 253 253 253 254 254 255 256 256 257 257 258 258 258 258 258 258 258 259 259 261 260 259 258 254 252 252 251 250 250 253 254
Wind_Speed
8 7 7 6 7 6 6 6 6 4 5 5 5 4 3 3 2 1 1 1 2 3 3 2 3 3 1 3 3 1 2 2 6 6 2 7 10 10 9 10 11 10 10
7 7 7 7 7 7 6 6 6 6 6 6 6 5 5 4 4 3 3 3 4 4 4 4 4 3 3 3 2 3 3 4 6 10 9 6 8 9 9 11 10 9 10
8 8 7 7 7 8 7 7 6 5 5 5 5 6 5 5 5 5 5 5 5 5 4 5 5 4 4 3 2 3 3 6 5 6 8 6 7 5 9 9 10 11 9
8 7 7 8 8 7 6 6 6 6 5 4 4 5 5 5 5 5 5 5 5 5 5 5 5 5 5 4 4 4 6 5 6 6 7 8 7 6 5 7 11 8 10
7 7 8 6 6 6 6 6 6 6 5 5 4 5 4 4 4 5 6 5 6 6 6 7 6 6 10 9 5 5 6 6 6 7 9 8 8 5 8 8 11 11 11
7 7 5 6 6 6 5 5 4 5 5 5 5 5 5 5 11 14 11 7 8 8 8 7 7 7 9 15 15 16 13 8 9 8 8 10 11 7 7 9 10 9 10
5 2 1 2 3 3 2 2 2 3 3 4 4 3 6 6 14 16 18 8 8 8 9 8 7 6 6 7 12 17 16 17 17 12 12 10 12 9 10 9 6 11 13
10 9 9 8 7 6 6 5 5 4 3 3 4 4 5 7 17 19 19 10 7 9 10 7 8 9 8 8 8 9 10 10 11 9 11 12 12 10 8 6 8 9 11
10 10 9 7 6 6 6 5 4 3 4 3 3 6 4 7 17 18 17 9 9 10 7 7 8 9 14 19 11 9 10 11 13 22 22 23 23 19 15 8 6 7 10
9 8 7 6 6 5 4 5 3 2 4 4 6 4 6 7 15 18 16 8 9 8 5 7 15 11 19 20 13 11 13 12 9 9 9 10 7 7 13 5 5 7 7
6 6 6 6 5 4 4 3 3 3 4 4 5 5 6 5 8 17 18 9 8 8 6 7 6 19 22 22 23 13 13 12 12 11 1 3 4 4 4 3 5 6 8
5 5 5 5 5 5 5 4 4 4 4 4 5 5 3 5 9 13 17 17 16 9 9 6 7 19 22 24 21 23 26 22 9 2 3 4 3 3 3 4 5 7 10
5 5 5 6 7 7 6 5 5 6 5 5 5 6 7 5 4 16 18 20 19 12 8 14 24 24 24 19 21 23 20 9 3 3 4 6 4 4 3 3 4 7 11
5 5 5 5 7 6 5 5 5 4 4 5 6 7 7 7 4 5 7 8 14 13 16 13 16 21 22 19 11 13 8 7 7 8 5 3 1 1 2 3 5 6 8
4 4 4 4 4 5 5 5 6 5 8 7 6 8 9 9 9 19 18 12 11 14 14 9 8 9 10 9 9 10 8 7 7 4 4 3 3 2 5 2 3 5 6
6 5 5 5 5 5 5 6 10 13 16 17 17 14 9 19 24 25 25 26 26 27 12 10 10 10 9 9 9 10 9 9 9 7 3 2 5 6 7 4 3 4 8
6 6 5 5 5 6 6 6 9 9 15 14 16 19 20 21 24 25 25 26 26 22 8 9 10 10 11 12 12 11 9 5 3 3 3 4 5 5 2 5 6 6 8
5 6 4 4 5 5 5 6 6 8 10 9 12 17 19 22 23 24 24 21 10 8 4 8 9 9 10 11 9 11 8 5 3 3 4 4 3 5 5 6 6 7 8
4 4 4 5 5 5 6 6 6 7 8 9 9 11 9 20 23 22 19 4 8 9 8 9 8 9 9 9 10 9 7 5 4 4 3 4 4 5 5 6 6 9 9
3 6 5 4 4 5 5 6 7 7 8 8 8 8 8 10 8 6 4 4 7 8 8 9 9 9 9 9 9 8 8 3 4 5 6 5 5 5 6 6 6 7 7
3 4 6 5 4 6 5 6 6 7 8 8 9 9 21 13 9 8 8 7 7 8 9 9 9 9 10 9 9 8 5 6 7 7 6 5 5 4 6 5 6 6 7
3 4 4 4 7 7 7 7 8 9 9 10 10 10 22 9 8 9 9 9 8 9 9 9 9 9 9 9 8 8 9 8 8 7 6 5 4 5 4 4 5 5 7
3 5 7 7 7 9 9 8 8 9 10 10 10 10 9 9 9 10 10 10 9 9 9 9 9 9 9 7 7 8 8 8 8 6 6 6 6 6 4 5 5 6 7
5 6 8 8 8 8 9 9 9 10 11 10 10 9 9 9 10 11 11 10 10 10 9 9 9 11 11 9 8 7 7 8 7 7 7 7 7 6 4 3 5 8 9
4 6 7 8 8 9 10 9 9 10 10 10 10 9 10 10 10 10 10 10 10 10 11 9 8 11 11 13 13 13 12 14 11 11 5 6 7 9 6 5 8 9 11
5 6 8 8 9 9 9 10 10 9 10 10 10 9 10 10 11 11 10 11 10 10 11 9 10 12 13 11 12 13 13 14 12 13 9 6 6 6 5 7 10 9 10
Wind_Direction
185 190 188 190 189 187 180 191 192 190 196 197 203 202 208 212 208 203 277 286 325 313 316 325 317 321 326 326 319 316 295 270 275 287 277 307 302 313 318 322 319 318 320
185 185 195 193 186 193 195 201 203 201 201 205 205 208 215 218 218 229 251 267 267 276 282 293 286 299 299 302 302 293 282 280 279 294 304 303 303 307 312 312 318 314 313
174 181 191 196 193 201 203 205 208 203 206 209 203 214 220 226 226 233 238 247 250 252 257 262 262 266 262 259 253 266 276 291 289 293 295 300 297 303 313 313 312 311 308
176 181 191 199 202 203 208 208 208 206 198 214 216 219 221 219 218 229 242 243 245 249 247 246 250 247 247 248 263 262 277 283 287 291 293 296 295 303 298 312 317 313 309
175 177 200 200 209 206 210 210 213 208 212 215 215 232 229 222 227 237 246 244 249 253 249 254 254 241 259 261 270 265 259 264 277 287 296 300 302 303 319 319 305 306 308
167 189 178 196 208 216 217 215 211 227 236 234 231 223 235 243 252 262 262 232 243 242 252 247 245 248 252 270 277 281 274 276 276 283 292 287 298 308 309 306 304 321 321
123 106 183 197 188 191 215 221 261 282 289 278 271 236 254 251 267 273 275 260 239 239 238 247 255 247 243 243 264 276 278 276 274 276 280 282 290 290 295 296 318 309 296
64 54 42 40 41 34 45 32 13 359 339 314 300 290 280 283 292 293 289 276 248 241 235 222 237 254 241 247 253 256 255 252 257 264 264 266 267 263 276 319 313 296 289
43 42 27 23 28 25 16 3 333 354 332 307 286 297 279 284 302 301 298 285 271 258 236 222 234 252 257 270 268 261 262 259 257 266 271 279 288 296 314 316 300 309 306
25 19 19 13 14 6 352 345 322 323 290 303 299 272 276 289 307 306 298 282 275 273 251 240 247 245 261 266 259 251 258 258 249 253 259 274 284 281 292 284 283 282 292
5 7 10 4 348 356 347 322 309 307 311 299 294 290 278 271 292 309 307 295 288 282 261 260 237 259 272 274 272 264 259 265 253 261 216 253 242 235 224 198 227 259 276
356 4 360 346 359 3 344 328 319 316 316 315 316 316 291 292 304 315 308 300 292 284 280 258 251 263 275 277 276 271 272 277 279 189 235 243 238 252 252 219 227 240 250
9 6 356 1 6 354 353 340 342 347 344 330 322 314 310 304 286 310 313 308 302 294 289 283 287 285 286 291 289 284 286 279 221 217 245 271 205 224 251 285 238 246 261
7 4 0 5 351 350 345 342 334 324 321 314 307 310 310 311 296 291 286 283 279 280 276 275 267 269 266 267 272 275 264 253 231 248 246 242 238 302 253 215 281 294 289
357 354 350 343 346 334 340 333 332 321 310 314 320 315 315 310 304 308 314 312 307 301 293 279 269 268 269 265 260 259 253 241 232 224 223 234 253 242 268 209 247 279 267
1 357 348 339 333 336 335 323 323 323 326 321 317 319 316 312 314 312 314 312 309 309 303 299 299 302 291 277 266 263 253 235 234 221 186 202 256 265 280 281 231 246 278
358 340 333 331 332 337 334 328 324 325 324 325 324 322 319 311 318 319 314 312 312 321 329 320 310 306 303 298 298 308 293 267 240 197 205 237 234 252 229 275 275 275 280
330 312 314 313 321 317 317 315 310 311 317 317 319 317 317 321 318 316 315 320 328 325 298 297 294 297 300 296 305 308 273 232 222 235 237 224 216 251 269 270 275 276 284
328 314 315 307 304 297 303 299 294 292 294 299 306 306 305 313 315 313 318 331 305 304 300 292 287 286 288 292 298 300 299 286 248 245 240 240 237 240 253 259 268 273 281
276 288 310 292 291 293 287 279 286 289 290 290 294 296 307 302 293 302 316 295 295 291 294 293 296 293 287 283 285 284 285 265 269 265 262 258 254 244 257 270 271 280 281
293 297 291 294 284 283 279 277 282 282 282 284 285 287 295 307 317 310 300 291 286 288 289 289 293 295 291 299 296 276 262 283 283 271 268 266 262 252 262 259 272 267 281
267 275 278 274 293 289 282 280 280 280 281 283 287 289 300 304 290 288 287 284 284 284 285 287 288 289 292 291 293 289 287 287 280 271 271 269 262 267 268 267 274 276 280
285 289 291 285 279 279 279 275 276 278 282 284 286 289 292 290 290 288 287 285 284 285 284 283 284 285 285 283 282 284 284 282 281 278 278 279 273 273 263 271 271 281 280
271 276 283 283 282 278 276 276 273 277 287 288 289 288 290 289 289 289 288 289 286 284 284 282 281 284 290 288 288 282 275 277 274 269 258 265 268 276 262 240 263 268 273
256 275 279 280 279 279 282 281 284 286 286 285 286 285 286 286 285 285 286 288 286 284 284 280 283 286 285 287 285 281 275 278 272 268 258 235 254 261 251 261 270 272 270
260 267 283 288 286 284 286 286 284 285 285 284 282 283 285 283 281 282 285 286 286 288 290 287 286 284 282 283 284 278 280 278 271 255 242 228 237 248 241 250 259 265 273